Location: York
(31.8935°S, 116.7682°E)
Time: 10:29:46
(UTC+08:00)

A-11 Canister half - All Passes

Search period start: 13 June 2021 00:00
Search period end: 23 June 2021 00:00
Orbit: 1527 x 1681 km, 47.3° (Epoch: 12 June)

Date Brightness Start Highest point End Pass type
(mag) Time Alt. Az. Time Alt. Az. Time Alt. Az.
13 Jun - 10:51:54 10° NNW 11:01:17 48° NE 11:10:52 10° ESE daylight
13 Jun - 12:56:21 10° WNW 13:06:20 61° SSW 13:16:27 10° SE daylight
13 Jun - 15:04:21 10° WSW 15:13:23 34° S 15:22:23 10° SE daylight
13 Jun - 17:11:41 10° SW 17:21:07 40° SSE 17:30:20 10° E daylight
13 Jun - 19:17:07 10° SW 19:27:19 90° SE 19:37:06 10° NE visible
13 Jun - 21:23:55 10° WSW 21:31:28 25° NW 21:38:51 10° N visible
14 Jun - 10:30:23 10° NNW 10:39:39 45° NE 10:49:06 10° ESE daylight
14 Jun - 12:34:36 10° WNW 12:44:36 64° SSW 12:54:45 10° SE daylight
14 Jun - 14:42:31 10° WSW 14:51:34 35° S 15:00:37 10° SE daylight
14 Jun - 16:49:55 10° SW 16:59:20 39° SSE 17:08:31 10° E daylight
14 Jun - 18:55:25 10° SW 19:05:37 86° SE 19:15:26 10° NE visible
14 Jun - 21:02:01 10° WSW 21:09:52 27° NW 21:17:32 10° N visible
15 Jun - 10:08:54 10° NNW 10:18:00 42° NE 10:27:20 10° ESE daylight
15 Jun - 12:12:51 10° WNW 12:22:52 66° SSW 12:33:03 10° SE daylight
15 Jun - 14:20:40 10° WSW 14:29:45 35° S 14:38:51 10° SE daylight
15 Jun - 16:28:11 10° SW 16:37:33 39° SSE 16:46:43 10° E daylight
15 Jun - 18:33:43 10° SW 18:43:56 83° SE 18:53:46 10° NE visible
15 Jun - 20:40:09 10° WSW 20:48:16 29° NW 20:56:11 10° N visible
16 Jun - 09:47:25 10° NNW 09:56:22 40° NE 10:05:32 10° ESE daylight
16 Jun - 11:51:08 10° WNW 12:01:08 69° SW 12:11:21 10° SE daylight
16 Jun - 13:58:50 10° WSW 14:07:58 36° S 14:17:05 10° SE daylight
16 Jun - 16:06:26 10° SW 16:15:45 38° SSE 16:24:54 10° E daylight
16 Jun - 18:12:00 10° SW 18:22:14 79° SE 18:32:06 10° NE visible
16 Jun - 20:18:17 10° WSW 20:26:39 31° NW 20:34:48 10° N visible
17 Jun - 09:25:58 10° NNW 09:34:44 37° NE 09:43:44 10° ESE daylight
17 Jun - 11:29:25 10° WNW 11:39:25 72° SW 11:49:40 10° SE daylight
17 Jun - 13:37:00 10° WSW 13:46:09 36° SSW 13:55:20 10° SE daylight
17 Jun - 15:44:41 10° SW 15:53:57 37° SSE 16:03:05 10° E daylight
17 Jun - 17:50:18 10° SW 18:00:32 76° SE 18:10:25 10° ENE visible
17 Jun - 19:56:26 10° WSW 20:05:02 34° NW 20:13:24 10° N visible
18 Jun - 09:04:31 10° N 09:13:07 35° NE 09:21:54 10° ESE daylight
18 Jun - 11:07:42 10° WNW 11:17:43 75° SW 11:27:58 10° SE daylight
18 Jun - 13:15:10 10° WSW 13:24:21 37° SSW 13:33:35 10° SE daylight
18 Jun - 15:22:56 10° SW 15:32:09 36° SSE 15:41:16 10° ESE daylight
18 Jun - 17:28:36 10° SW 17:38:49 73° SE 17:48:43 10° ENE visible
18 Jun - 19:34:37 10° WSW 19:43:25 36° NW 19:51:59 10° N visible
19 Jun - 08:43:06 10° N 08:51:29 33° NE 09:00:05 10° ESE daylight
19 Jun - 10:46:00 10° WNW 10:56:00 78° SW 11:06:15 10° SE daylight
19 Jun - 12:53:20 10° W 13:02:32 37° SSW 13:11:51 10° SE daylight
19 Jun - 15:01:10 10° SW 15:10:21 36° SSE 15:19:26 10° ESE daylight
19 Jun - 17:06:54 10° SW 17:17:06 70° SE 17:27:01 10° ENE daylight
19 Jun - 19:12:48 10° WSW 19:21:48 38° NW 19:30:32 10° NNE visible
20 Jun - 08:21:42 10° N 08:29:52 31° NE 08:38:14 10° ESE daylight
20 Jun - 10:24:19 10° NW 10:34:17 81° SW 10:44:34 10° SE daylight
20 Jun - 12:31:31 10° W 12:40:44 38° SSW 12:50:05 10° SE daylight
20 Jun - 14:39:24 10° SW 14:48:33 35° S 14:57:36 10° ESE daylight
20 Jun - 16:45:12 10° SW 16:55:23 68° SSE 17:05:18 10° ENE daylight
20 Jun - 18:51:00 10° WSW 19:00:10 41° NW 19:09:05 10° NNE visible
21 Jun - 08:00:19 10° N 08:08:16 29° NE 08:16:22 10° ESE daylight
21 Jun - 10:02:38 10° NW 10:12:36 84° SW 10:22:51 10° SE daylight
21 Jun - 12:09:41 10° W 12:18:57 39° SSW 12:28:21 10° SE daylight
21 Jun - 14:17:38 10° SW 14:26:44 35° S 14:35:47 10° ESE daylight
21 Jun - 16:23:30 10° SW 16:33:40 65° SSE 16:43:34 10° ENE daylight
21 Jun - 18:29:13 10° WSW 18:38:32 43° NW 18:47:36 10° NNE visible
22 Jun - 07:38:59 10° N 07:46:38 27° NE 07:54:29 10° ESE daylight
22 Jun - 09:40:58 10° NW 09:50:54 88° SW 10:01:09 10° SE daylight
22 Jun - 11:47:51 10° W 11:57:10 40° SSW 12:06:37 10° SE daylight
22 Jun - 13:55:51 10° SW 14:04:55 34° S 14:13:57 10° ESE daylight
22 Jun - 16:01:48 10° SW 16:11:56 63° SSE 16:21:50 10° ENE daylight
22 Jun - 18:07:26 10° WSW 18:16:54 46° NW 18:26:07 10° NNE visible
